Time,TemperatureF,DewpointF,PressureIn,WindDirection,WindDirectionDegrees,WindSpeedMPH,WindSpeedGustMPH,Humidity,HourlyPrecipIn,Conditions,Clouds,dailyrainin,SoftwareType,DateUTC
2013-01-19 00:01:00,25.0,13.5,30.39,SW,232,5.6,7.0,61,0.00,,CLR,0.00,VWS V14.01,2013-01-19 05:01:00,
2013-01-19 00:03:00,25.1,13.6,30.38,SW,216,4.2,7.0,61,0.00,,FEW075,0.00,VWS V14.01,2013-01-19 05:03:00,
2013-01-19 00:08:00,25.3,13.8,30.38,SSW,202,0.0,5.6,61,0.00,,FEW075,0.00,VWS V14.01,2013-01-19 05:08:00,
2013-01-19 00:13:00,25.4,13.8,30.38,SW,221,2.8,9.8,61,0.00,,FEW075,0.00,VWS V14.01,2013-01-19 05:13:00,
2013-01-19 00:18:00,25.8,14.2,30.37,SW,220,1.4,7.0,61,0.00,,FEW075,0.00,VWS V14.01,2013-01-19 05:18:00,
2013-01-19 00:23:00,25.9,13.9,30.37,SW,218,1.4,8.4,60,0.00,,FEW075,0.00,VWS V14.01,2013-01-19 05:23:00,
2013-01-19 00:28:00,26.0,14.4,30.37,SW,225,8.4,9.8,61,0.00,,FEW075,0.00,VWS V14.01,2013-01-19 05:28:00,
2013-01-19 00:33:00,26.3,14.7,30.37,WSW,252,12.6,18.2,61,0.00,,FEW075,0.00,VWS V14.01,2013-01-19 05:33:00,
2013-01-19 00:38:00,26.5,14.9,30.36,WSW,249,14.0,14.0,61,0.00,,FEW075,0.00,VWS V14.01,2013-01-19 05:38:00,
2013-01-19 00:43:00,26.7,15.4,30.36,SW,233,5.6,15.4,62,0.00,,FEW075,0.00,VWS V14.01,2013-01-19 05:43:00,
2013-01-19 00:48:00,26.9,15.6,30.36,SW,220,11.2,12.6,62,0.00,,FEW075,0.00,VWS V14.01,2013-01-19 05:48:00,
2013-01-19 00:53:00,27.1,15.4,30.37,SW,221,0.0,14.0,61,0.00,,FEW075,0.00,VWS V14.01,2013-01-19 05:53:00,
2013-01-19 00:58:00,27.2,15.6,30.37,SW,223,9.8,15.4,61,0.00,,FEW075,0.00,VWS V14.01,2013-01-19 05:58:00,
2013-01-19 01:03:00,27.2,15.9,30.37,WSW,246,9.8,11.2,62,0.00,,SCT085,0.00,VWS V14.01,2013-01-19 06:03:00,
2013-01-19 01:08:00,27.3,16.4,30.37,WSW,251,8.4,12.6,63,0.00,,SCT085,0.00,VWS V14.01,2013-01-19 06:08:00,
2013-01-19 01:13:00,27.4,16.5,30.37,WSW,246,0.0,7.0,63,0.00,,SCT085,0.00,VWS V14.01,2013-01-19 06:13:00,
2013-01-19 01:18:00,27.5,16.9,30.37,South,190,5.6,11.2,64,0.00,,SCT085,0.00,VWS V14.01,2013-01-19 06:18:00,
2013-01-19 01:23:00,27.5,17.3,30.37,SW,223,2.8,15.4,65,0.00,,SCT085,0.00,VWS V14.01,2013-01-19 06:23:00,
2013-01-19 01:28:00,27.7,17.1,30.36,SSW,212,5.6,11.2,64,0.00,,SCT085,0.00,VWS V14.01,2013-01-19 06:28:00,
2013-01-19 01:33:00,27.8,17.6,30.35,South,182,0.0,7.0,65,0.00,,SCT085,0.00,VWS V14.01,2013-01-19 06:33:00,
2013-01-19 01:38:00,27.9,17.7,30.36,SW,231,12.6,14.0,65,0.00,,SCT085,0.00,VWS V14.01,2013-01-19 06:38:00,
2013-01-19 01:43:00,28.2,17.2,30.35,WSW,239,8.4,21.0,63,0.00,,SCT085,0.00,VWS V14.01,2013-01-19 06:43:00,
2013-01-19 01:48:00,28.5,17.5,30.35,South,186,2.8,15.4,63,0.00,,SCT085,0.00,VWS V14.01,2013-01-19 06:48:00,
2013-01-19 01:53:00,28.7,17.3,30.35,SW,230,4.2,14.0,62,0.00,,SCT085,0.00,VWS V14.01,2013-01-19 06:53:00,
2013-01-19 01:58:00,28.8,17.1,30.35,SW,230,12.6,19.6,61,0.00,,SCT085,0.00,VWS V14.01,2013-01-19 06:58:00,
2013-01-19 02:03:00,29.1,16.6,30.36,SSW,193,11.2,22.4,59,0.00,,OVC110,0.00,VWS V14.01,2013-01-19 07:03:00,
2013-01-19 02:08:00,29.3,16.4,30.35,SW,216,12.6,14.0,58,0.00,,OVC110,0.00,VWS V14.01,2013-01-19 07:08:00,
2013-01-19 02:13:00,29.4,17.2,30.35,SW,228,11.2,18.2,60,0.00,,OVC110,0.00,VWS V14.01,2013-01-19 07:13:00,
2013-01-19 02:18:00,29.4,17.6,30.35,SW,230,8.4,16.8,61,0.00,,OVC110,0.00,VWS V14.01,2013-01-19 07:18:00,
2013-01-19 02:23:00,29.4,18.7,30.35,SSW,210,8.4,8.4,64,0.00,,OVC110,0.00,VWS V14.01,2013-01-19 07:23:00,
2013-01-19 02:28:00,29.5,19.2,30.34,WSW,241,1.4,11.2,65,0.00,,OVC110,0.00,VWS V14.01,2013-01-19 07:28:00,
2013-01-19 02:33:00,29.7,19.4,30.34,SSW,203,1.4,15.4,65,0.00,,OVC110,0.00,VWS V14.01,2013-01-19 07:33:00,
2013-01-19 02:38:00,29.7,19.8,30.34,SW,215,8.4,9.8,66,0.00,,OVC110,0.00,VWS V14.01,2013-01-19 07:38:00,
2013-01-19 02:43:00,29.7,19.8,30.34,SSE,160,9.8,19.6,66,0.00,,OVC110,0.00,VWS V14.01,2013-01-19 07:43:00,
2013-01-19 02:48:00,29.9,19.6,30.34,SW,234,7.0,18.2,65,0.00,,OVC110,0.00,VWS V14.01,2013-01-19 07:48:00,
2013-01-19 02:53:00,29.9,19.9,30.33,SSW,206,9.8,14.0,66,0.00,,OVC110,0.00,VWS V14.01,2013-01-19 07:53:00,
2013-01-19 02:58:00,29.7,19.4,30.34,WSW,238,7.0,11.2,65,0.00,,OVC110,0.00,VWS V14.01,2013-01-19 07:58:00,
2013-01-19 03:03:00,29.7,19.4,30.34,SW,233,5.6,18.2,65,0.00,,OVC120,0.00,VWS V14.01,2013-01-19 08:03:00,
2013-01-19 03:08:00,29.7,19.4,30.33,SW,221,5.6,18.2,65,0.00,,OVC120,0.00,VWS V14.01,2013-01-19 08:08:00,
2013-01-19 03:13:00,29.7,19.8,30.33,SSW,203,16.8,16.8,66,0.00,,OVC120,0.00,VWS V14.01,2013-01-19 08:13:00,
2013-01-19 03:18:00,29.9,19.9,30.32,SW,235,1.4,14.0,66,0.00,,OVC120,0.00,VWS V14.01,2013-01-19 08:18:00,
2013-01-19 03:23:00,29.9,20.6,30.32,SW,233,8.4,22.4,68,0.00,,OVC120,0.00,VWS V14.01,2013-01-19 08:23:00,
2013-01-19 03:28:00,30.0,20.7,30.32,SSW,204,2.8,12.6,68,0.00,,OVC120,0.00,VWS V14.01,2013-01-19 08:28:00,
2013-01-19 03:33:00,30.2,20.6,30.32,SW,223,9.8,19.6,67,0.00,,OVC120,0.00,VWS V14.01,2013-01-19 08:33:00,
2013-01-19 03:38:00,30.2,20.2,30.32,SW,216,9.8,11.2,66,0.00,,OVC120,0.00,VWS V14.01,2013-01-19 08:38:00,
2013-01-19 03:43:00,30.3,20.3,30.32,WSW,251,5.6,12.6,66,0.00,,OVC120,0.00,VWS V14.01,2013-01-19 08:43:00,
2013-01-19 03:48:00,30.4,20.4,30.32,South,185,1.4,9.8,66,0.00,,OVC120,0.00,VWS V14.01,2013-01-19 08:48:00,
2013-01-19 03:53:00,30.3,20.3,30.31,WSW,242,15.4,23.8,66,0.00,,OVC120,0.00,VWS V14.01,2013-01-19 08:53:00,
2013-01-19 03:58:00,30.5,20.5,30.32,SW,231,12.6,12.6,66,0.00,,OVC120,0.00,VWS V14.01,2013-01-19 08:58:00,
2013-01-19 04:03:00,30.5,20.5,30.31,SW,218,5.6,11.2,66,0.00,,SCT120,0.00,VWS V14.01,2013-01-19 09:03:00,
2013-01-19 04:08:00,30.5,20.5,30.31,SW,222,4.2,14.0,66,0.00,,SCT120,0.00,VWS V14.01,2013-01-19 09:08:00,
2013-01-19 04:13:00,30.6,20.6,30.31,SSW,206,1.4,14.0,66,0.00,,SCT120,0.00,VWS V14.01,2013-01-19 09:13:00,
2013-01-19 04:18:00,30.5,20.5,30.30,SW,217,7.0,12.6,66,0.00,,SCT120,0.00,VWS V14.01,2013-01-19 09:18:00,
2013-01-19 04:23:00,30.5,20.5,30.30,WSW,237,5.6,19.6,66,0.00,,SCT120,0.00,VWS V14.01,2013-01-19 09:23:00,
2013-01-19 04:28:00,30.5,20.5,30.30,WSW,256,9.8,11.2,66,0.00,,SCT120,0.00,VWS V14.01,2013-01-19 09:28:00,
2013-01-19 04:33:00,30.6,20.6,30.30,SSW,199,2.8,4.2,66,0.00,,SCT120,0.00,VWS V14.01,2013-01-19 09:33:00,
2013-01-19 04:38:00,30.6,21.0,30.29,WSW,238,8.4,8.4,67,0.00,,SCT120,0.00,VWS V14.01,2013-01-19 09:38:00,
2013-01-19 04:43:00,30.8,21.5,30.30,SW,217,4.2,21.0,68,0.00,,SCT120,0.00,VWS V14.01,2013-01-19 09:43:00,
2013-01-19 04:48:00,30.9,21.6,30.29,SSW,204,1.4,11.2,68,0.00,,SCT120,0.00,VWS V14.01,2013-01-19 09:48:00,
2013-01-19 04:53:00,30.9,21.6,30.29,WSW,237,5.6,15.4,68,0.00,,SCT120,0.00,VWS V14.01,2013-01-19 09:53:00,
2013-01-19 04:58:00,31.2,22.2,30.29,SW,227,1.4,11.2,69,0.00,,SCT120,0.00,VWS V14.01,2013-01-19 09:58:00,
2013-01-19 05:03:00,31.4,22.4,30.29,SW,231,14.0,14.0,69,0.00,,OVC110,0.00,VWS V14.01,2013-01-19 10:03:00,
2013-01-19 05:08:00,31.5,22.5,30.28,SW,228,14.0,19.6,69,0.00,,OVC110,0.00,VWS V14.01,2013-01-19 10:08:00,
2013-01-19 05:13:00,31.7,22.7,30.28,SW,235,8.4,18.2,69,0.00,,OVC110,0.00,VWS V14.01,2013-01-19 10:13:00,
2013-01-19 05:18:00,31.8,22.8,30.28,SW,236,18.2,19.6,69,0.00,,OVC110,0.00,VWS V14.01,2013-01-19 10:18:00,
2013-01-19 05:23:00,32.0,23.0,30.28,SW,225,19.6,19.6,69,0.00,,OVC110,0.00,VWS V14.01,2013-01-19 10:23:00,
2013-01-19 05:28:00,32.2,23.2,30.28,WSW,239,16.8,16.8,69,0.00,,OVC110,0.00,VWS V14.01,2013-01-19 10:28:00,
2013-01-19 05:33:00,32.4,23.4,30.28,WSW,237,15.4,19.6,69,0.00,,OVC110,0.00,VWS V14.01,2013-01-19 10:33:00,
2013-01-19 05:38:00,32.5,23.5,30.28,WSW,249,4.2,8.4,69,0.00,,OVC110,0.00,VWS V14.01,2013-01-19 10:38:00,
2013-01-19 05:43:00,32.7,23.7,30.28,WSW,241,22.4,22.4,69,0.00,,OVC110,0.00,VWS V14.01,2013-01-19 10:43:00,
2013-01-19 05:48:00,32.8,23.8,30.28,SW,220,7.0,14.0,69,0.00,,OVC110,0.00,VWS V14.01,2013-01-19 10:48:00,
2013-01-19 05:53:00,32.9,24.2,30.28,SW,235,11.2,16.8,70,0.00,,OVC110,0.00,VWS V14.01,2013-01-19 10:53:00,
2013-01-19 05:58:00,32.8,24.5,30.28,WSW,242,9.8,16.8,71,0.00,,OVC110,0.00,VWS V14.01,2013-01-19 10:58:00,
2013-01-19 06:03:00,33.1,24.7,30.28,WSW,244,8.4,21.0,71,0.00,,OVC120,0.00,VWS V14.01,2013-01-19 11:03:00,
2013-01-19 06:08:00,33.1,24.7,30.28,SW,222,14.0,15.4,71,0.00,,OVC120,0.00,VWS V14.01,2013-01-19 11:08:00,
2013-01-19 06:13:00,33.1,25.1,30.27,SSW,212,5.6,25.2,72,0.00,,OVC120,0.00,VWS V14.01,2013-01-19 11:13:00,
2013-01-19 07:47:00,34.6,27.8,30.25,WSW,249,15.4,15.4,76,0.00,,BKN100,0.00,VWS V14.01,2013-01-19 12:47:00,
2013-01-19 07:48:00,34.6,27.8,30.25,WSW,256,16.8,16.8,76,0.00,,BKN100,0.00,VWS V14.01,2013-01-19 12:48:00,
2013-01-19 07:53:00,34.8,28.0,30.25,WSW,247,7.0,19.6,76,0.00,,BKN100,0.00,VWS V14.01,2013-01-19 12:53:00,
2013-01-19 07:58:00,35.1,28.0,30.26,SW,228,16.8,23.8,75,0.00,,BKN100,0.00,VWS V14.01,2013-01-19 12:58:00,
2013-01-19 08:03:00,35.2,27.8,30.26,SW,218,14.0,15.4,74,0.00,,SCT120,0.00,VWS V14.01,2013-01-19 13:03:00,
2013-01-19 08:08:00,35.3,28.2,30.25,WSW,245,8.4,22.4,75,0.00,,SCT120,0.00,VWS V14.01,2013-01-19 13:08:00,
2013-01-19 08:13:00,35.5,28.0,30.25,SSW,196,2.8,21.0,74,0.00,,SCT120,0.00,VWS V14.01,2013-01-19 13:13:00,
2013-01-19 08:18:00,35.7,27.9,30.25,SSW,198,15.4,25.2,73,0.00,,SCT120,0.00,VWS V14.01,2013-01-19 13:18:00,
2013-01-19 08:23:00,35.7,27.9,30.25,SW,221,8.4,19.6,73,0.00,,SCT120,0.00,VWS V14.01,2013-01-19 13:23:00,
2013-01-19 08:28:00,35.9,28.1,30.25,SW,234,14.0,32.2,73,0.00,,SCT120,0.00,VWS V14.01,2013-01-19 13:28:00,
2013-01-19 08:33:00,35.9,28.1,30.25,SW,232,1.4,16.8,73,0.00,,SCT120,0.00,VWS V14.01,2013-01-19 13:33:00,
2013-01-19 08:38:00,36.0,28.5,30.25,WSW,241,8.4,11.2,74,0.00,,SCT120,0.00,VWS V14.01,2013-01-19 13:38:00,
2013-01-19 08:43:00,36.0,28.2,30.25,WSW,239,12.6,21.0,73,0.00,,SCT120,0.00,VWS V14.01,2013-01-19 13:43:00,
2013-01-19 08:48:00,36.2,28.7,30.24,WSW,248,15.4,15.4,74,0.00,,SCT120,0.00,VWS V14.01,2013-01-19 13:48:00,
2013-01-19 08:53:00,36.3,28.8,30.24,SW,225,12.6,14.0,74,0.00,,SCT120,0.00,VWS V14.01,2013-01-19 13:53:00,
2013-01-19 08:58:00,36.3,28.5,30.25,South,182,2.8,9.8,73,0.00,,SCT120,0.00,VWS V14.01,2013-01-19 13:58:00,
2013-01-19 09:03:00,36.4,28.6,30.25,WSW,248,16.8,16.8,73,0.00,,FEW120,0.00,VWS V14.01,2013-01-19 14:03:00,
2013-01-19 09:08:00,36.6,28.8,30.25,South,187,11.2,15.4,73,0.00,,FEW120,0.00,VWS V14.01,2013-01-19 14:08:00,
2013-01-19 09:13:00,36.7,28.9,30.25,WSW,241,19.6,19.6,73,0.00,,FEW120,0.00,VWS V14.01,2013-01-19 14:13:00,
2013-01-19 09:18:00,36.9,28.7,30.25,SW,219,12.6,21.0,72,0.00,,FEW120,0.00,VWS V14.01,2013-01-19 14:18:00,
2013-01-19 09:23:00,36.8,28.6,30.25,WSW,240,7.0,8.4,72,0.00,,FEW120,0.00,VWS V14.01,2013-01-19 14:23:00,
2013-01-19 09:28:00,37.0,28.8,30.25,WSW,247,11.2,21.0,72,0.00,,FEW120,0.00,VWS V14.01,2013-01-19 14:28:00,
2013-01-19 09:33:00,37.2,29.0,30.25,WSW,240,14.0,26.6,72,0.00,,FEW120,0.00,VWS V14.01,2013-01-19 14:33:00,
2013-01-19 09:38:00,37.3,28.8,30.25,SW,229,7.0,21.0,71,0.00,,FEW120,0.00,VWS V14.01,2013-01-19 14:38:00,
2013-01-19 09:43:00,37.4,28.5,30.24,WSW,258,11.2,21.0,70,0.00,,FEW120,0.00,VWS V14.01,2013-01-19 14:43:00,
2013-01-19 09:48:00,37.4,28.5,30.24,SSW,213,8.4,21.0,70,0.00,,FEW120,0.00,VWS V14.01,2013-01-19 14:48:00,
2013-01-19 09:53:00,37.6,28.7,30.24,SSW,209,7.0,18.2,70,0.00,,FEW120,0.00,VWS V14.01,2013-01-19 14:53:00,
2013-01-19 09:58:00,37.7,28.5,30.24,SW,223,15.4,16.8,69,0.00,,FEW120,0.00,VWS V14.01,2013-01-19 14:58:00,
2013-01-19 10:03:00,37.8,28.6,30.24,South,170,7.0,18.2,69,0.00,,BKN120,0.00,VWS V14.01,2013-01-19 15:03:00,
2013-01-19 10:08:00,38.0,28.4,30.24,South,173,11.2,22.4,68,0.00,,BKN120,0.00,VWS V14.01,2013-01-19 15:08:00,
2013-01-19 10:13:00,38.2,28.6,30.24,South,189,5.6,15.4,68,0.01,,BKN120,0.01,VWS V14.01,2013-01-19 15:13:00,
2013-01-19 10:18:00,38.3,28.7,30.23,South,176,5.6,22.4,68,0.01,,BKN120,0.01,VWS V14.01,2013-01-19 15:18:00,
2013-01-19 10:23:00,38.7,29.1,30.23,SSE,167,15.4,29.4,68,0.01,,BKN120,0.01,VWS V14.01,2013-01-19 15:23:00,
2013-01-19 10:28:00,38.7,28.7,30.22,SSE,165,7.0,23.8,67,0.01,,BKN120,0.01,VWS V14.01,2013-01-19 15:28:00,
2013-01-19 10:33:00,39.0,29.0,30.22,South,191,8.4,18.2,67,0.02,,BKN120,0.02,VWS V14.01,2013-01-19 15:33:00,
2013-01-19 10:38:00,39.3,29.3,30.21,SSE,167,22.4,25.2,67,0.02,,BKN120,0.02,VWS V14.01,2013-01-19 15:38:00,
2013-01-19 10:43:00,39.4,29.0,30.21,SE,139,8.4,11.2,66,0.02,,BKN120,0.02,VWS V14.01,2013-01-19 15:43:00,
2013-01-19 10:48:00,39.4,28.6,30.20,SE,144,12.6,16.8,65,0.02,,BKN120,0.02,VWS V14.01,2013-01-19 15:48:00,
2013-01-19 10:53:00,39.6,28.4,30.21,SSE,162,22.4,25.2,64,0.03,,BKN120,0.03,VWS V14.01,2013-01-19 15:53:00,
2013-01-19 10:58:00,39.6,28.4,30.20,SSE,158,26.6,26.6,64,0.03,,BKN120,0.03,VWS V14.01,2013-01-19 15:58:00,
2013-01-19 11:03:00,39.6,28.4,30.20,SSE,163,15.4,15.4,64,0.03,,BKN120,0.03,VWS V14.01,2013-01-19 16:03:00,
2013-01-19 11:08:00,39.7,28.9,30.19,SSE,162,16.8,23.8,65,0.03,,BKN120,0.03,VWS V14.01,2013-01-19 16:08:00,
2013-01-19 11:13:00,39.6,28.8,30.19,South,187,14.0,28.0,65,0.03,,BKN120,0.03,VWS V14.01,2013-01-19 16:13:00,
2013-01-19 11:18:00,39.7,28.9,30.19,SSE,168,4.2,14.0,65,0.04,,BKN120,0.04,VWS V14.01,2013-01-19 16:18:00,
2013-01-19 11:23:00,39.8,29.0,30.18,South,172,18.2,19.6,65,0.04,,BKN120,0.04,VWS V14.01,2013-01-19 16:23:00,
2013-01-19 11:28:00,39.7,28.9,30.18,SSE,161,12.6,23.8,65,0.04,,BKN120,0.04,VWS V14.01,2013-01-19 16:28:00,
2013-01-19 11:33:00,39.7,28.9,30.17,SE,137,5.6,9.8,65,0.04,,BKN120,0.04,VWS V14.01,2013-01-19 16:33:00,
2013-01-19 11:38:00,39.8,29.0,30.17,SSE,165,19.6,28.0,65,0.04,,BKN120,0.04,VWS V14.01,2013-01-19 16:38:00,
2013-01-19 11:43:00,39.7,29.3,30.16,South,169,23.8,23.8,66,0.04,,BKN120,0.04,VWS V14.01,2013-01-19 16:43:00,
2013-01-19 11:48:00,39.6,28.8,30.16,SSE,152,2.8,18.2,65,0.04,,BKN120,0.04,VWS V14.01,2013-01-19 16:48:00,
2013-01-19 11:53:00,39.7,28.9,30.16,SE,126,2.8,14.0,65,0.04,,BKN120,0.04,VWS V14.01,2013-01-19 16:53:00,
2013-01-19 11:58:00,39.9,29.1,30.15,SSW,202,14.0,15.4,65,0.04,,BKN120,0.04,VWS V14.01,2013-01-19 16:58:00,
2013-01-19 12:03:00,39.9,29.1,30.15,SSW,194,7.0,9.8,65,0.01,,BKN130,0.04,VWS V14.01,2013-01-19 17:03:00,
2013-01-19 12:08:00,39.9,29.1,30.15,WSW,238,2.8,12.6,65,0.01,,BKN130,0.04,VWS V14.01,2013-01-19 17:08:00,
2013-01-19 12:13:00,39.9,29.1,30.14,SW,230,9.8,18.2,65,0.01,,BKN130,0.04,VWS V14.01,2013-01-19 17:13:00,
2013-01-19 12:18:00,39.8,29.0,30.14,SW,218,5.6,11.2,65,0.01,,BKN130,0.04,VWS V14.01,2013-01-19 17:18:00,
2013-01-19 12:23:00,39.8,29.0,30.14,SW,236,15.4,22.4,65,0.01,,BKN130,0.04,VWS V14.01,2013-01-19 17:23:00,
2013-01-19 12:28:00,40.0,29.2,30.13,WSW,248,8.4,16.8,65,0.01,,BKN130,0.04,VWS V14.01,2013-01-19 17:28:00,
2013-01-19 12:33:00,40.0,29.2,30.12,WSW,254,7.0,21.0,65,0.01,,BKN130,0.04,VWS V14.01,2013-01-19 17:33:00,
2013-01-19 12:38:00,40.1,29.3,30.12,SW,232,12.6,12.6,65,0.01,,BKN130,0.04,VWS V14.01,2013-01-19 17:38:00,
2013-01-19 12:43:00,40.2,29.8,30.12,SSW,206,7.0,12.6,66,0.01,,BKN130,0.04,VWS V14.01,2013-01-19 17:43:00,
2013-01-19 12:48:00,40.3,29.9,30.12,SSW,195,7.0,11.2,66,0.01,,BKN130,0.04,VWS V14.01,2013-01-19 17:48:00,
2013-01-19 12:53:00,40.4,29.6,30.12,SW,226,7.0,18.2,65,0.01,,BKN130,0.04,VWS V14.01,2013-01-19 17:53:00,
2013-01-19 12:58:00,40.4,30.0,30.11,SW,231,15.4,15.4,66,0.01,,BKN130,0.04,VWS V14.01,2013-01-19 17:58:00,
2013-01-19 13:03:00,40.7,30.2,30.11,SW,220,12.6,18.2,66,0.00,,BKN130,0.04,VWS V14.01,2013-01-19 18:03:00,
2013-01-19 13:08:00,40.7,29.9,30.11,SW,222,8.4,16.8,65,0.00,,BKN130,0.04,VWS V14.01,2013-01-19 18:08:00,
2013-01-19 13:13:00,40.8,29.6,30.11,SSW,208,14.0,14.0,64,0.00,,BKN130,0.04,VWS V14.01,2013-01-19 18:13:00,
2013-01-19 13:19:00,40.8,30.0,30.11,WSW,239,19.6,28.0,65,0.00,,BKN130,0.04,VWS V14.01,2013-01-19 18:19:00,
2013-01-19 13:24:00,41.0,30.1,30.10,WSW,256,5.6,18.2,65,0.01,,BKN130,0.05,VWS V14.01,2013-01-19 18:24:00,
2013-01-19 13:29:00,41.0,30.1,30.10,WSW,245,5.6,19.6,65,0.01,,BKN130,0.05,VWS V14.01,2013-01-19 18:29:00,
2013-01-19 13:34:00,41.1,30.2,30.09,South,188,5.6,16.8,65,0.01,,BKN130,0.05,VWS V14.01,2013-01-19 18:34:00,
2013-01-19 13:39:00,41.3,30.4,30.09,WSW,246,12.6,15.4,65,0.01,,BKN130,0.05,VWS V14.01,2013-01-19 18:39:00,
2013-01-19 13:44:00,41.4,30.5,30.09,WSW,244,2.8,8.4,65,0.01,,BKN130,0.05,VWS V14.01,2013-01-19 18:44:00,
2013-01-19 13:49:00,41.6,30.7,30.08,SSW,213,4.2,14.0,65,0.01,,BKN130,0.05,VWS V14.01,2013-01-19 18:49:00,
2013-01-19 13:54:00,41.8,30.9,30.08,SSW,202,9.8,15.4,65,0.01,,BKN130,0.05,VWS V14.01,2013-01-19 18:54:00,
2013-01-19 13:59:00,41.8,30.9,30.08,WSW,242,7.0,18.2,65,0.01,,BKN130,0.05,VWS V14.01,2013-01-19 18:59:00,
2013-01-19 14:04:00,41.8,30.9,30.08,WSW,246,1.4,14.0,65,0.01,,BKN130,0.05,VWS V14.01,2013-01-19 19:04:00,
2013-01-19 14:09:00,41.9,31.4,30.08,SW,233,5.6,9.8,66,0.01,,BKN130,0.05,VWS V14.01,2013-01-19 19:09:00,
2013-01-19 14:14:00,41.9,31.8,30.08,SSW,212,7.0,16.8,67,0.01,,BKN130,0.05,VWS V14.01,2013-01-19 19:14:00,
2013-01-19 14:19:00,41.8,31.7,30.07,SW,234,8.4,8.4,67,0.01,,BKN130,0.05,VWS V14.01,2013-01-19 19:19:00,
2013-01-19 14:25:00,41.8,31.7,30.07,SW,226,11.2,11.2,67,0.01,,BKN130,0.05,VWS V14.01,2013-01-19 19:25:00,
2013-01-19 14:30:00,41.8,32.0,30.07,WSW,245,9.8,19.6,68,0.01,,BKN130,0.05,VWS V14.01,2013-01-19 19:30:00,
2013-01-19 14:35:00,42.0,32.2,30.07,WSW,238,11.2,18.2,68,0.01,,BKN130,0.05,VWS V14.01,2013-01-19 19:35:00,
2013-01-19 14:40:00,42.0,31.9,30.07,SW,226,2.8,11.2,67,0.01,,BKN130,0.05,VWS V14.01,2013-01-19 19:40:00,
2013-01-19 14:45:00,42.1,32.0,30.07,South,179,5.6,9.8,67,0.01,,BKN130,0.05,VWS V14.01,2013-01-19 19:45:00,
2013-01-19 14:50:00,42.1,32.3,30.07,WSW,238,5.6,11.2,68,0.01,,BKN130,0.05,VWS V14.01,2013-01-19 19:50:00,
2013-01-19 14:55:00,42.1,32.3,30.07,WSW,257,8.4,15.4,68,0.01,,BKN130,0.05,VWS V14.01,2013-01-19 19:55:00,
2013-01-19 15:00:00,42.1,32.7,30.07,WSW,251,5.6,9.8,69,0.01,,BKN130,0.05,VWS V14.01,2013-01-19 20:00:00,
2013-01-19 15:05:00,42.3,32.9,30.07,SW,225,8.4,9.8,69,0.00,,BKN130,0.05,VWS V14.01,2013-01-19 20:05:00,
2013-01-19 15:10:00,42.2,32.8,30.07,SSW,211,0.0,9.8,69,0.00,,BKN130,0.05,VWS V14.01,2013-01-19 20:10:00,
2013-01-19 15:15:00,42.3,32.9,30.07,SW,217,4.2,12.6,69,0.00,,BKN130,0.05,VWS V14.01,2013-01-19 20:15:00,
2013-01-19 15:20:00,42.5,33.4,30.07,SW,220,0.0,5.6,70,0.00,,BKN130,0.05,VWS V14.01,2013-01-19 20:20:00,
2013-01-19 15:25:00,42.5,33.4,30.06,WSW,248,0.0,5.6,70,0.00,,BKN130,0.05,VWS V14.01,2013-01-19 20:25:00,
2013-01-19 15:30:00,42.5,33.4,30.06,WSW,250,2.8,4.2,70,0.00,,BKN130,0.05,VWS V14.01,2013-01-19 20:30:00,
2013-01-19 15:35:00,42.5,33.4,30.06,South,191,1.4,4.2,70,0.00,,BKN130,0.05,VWS V14.01,2013-01-19 20:35:00,
2013-01-19 15:41:00,42.5,33.1,30.06,SW,223,0.0,2.8,69,0.00,,BKN130,0.05,VWS V14.01,2013-01-19 20:41:00,
2013-01-19 15:47:00,42.5,33.1,30.06,SW,220,5.6,12.6,69,0.00,,BKN130,0.05,VWS V14.01,2013-01-19 20:47:00,
2013-01-19 15:52:00,42.5,33.1,30.06,SSW,201,2.8,14.0,69,0.00,,BKN130,0.05,VWS V14.01,2013-01-19 20:52:00,
2013-01-19 15:57:00,42.5,33.8,30.06,SW,217,4.2,5.6,71,0.00,,BKN130,0.05,VWS V14.01,2013-01-19 20:57:00,
2013-01-19 16:02:00,42.5,33.8,30.05,SW,220,8.4,9.8,71,0.00,,BKN130,0.05,VWS V14.01,2013-01-19 21:02:00,
2013-01-19 16:07:00,42.5,34.1,30.06,WSW,247,11.2,11.2,72,0.00,,BKN130,0.05,VWS V14.01,2013-01-19 21:07:00,
2013-01-19 16:12:00,42.4,34.0,30.05,South,190,0.0,4.2,72,0.00,,BKN130,0.05,VWS V14.01,2013-01-19 21:12:00,
2013-01-19 16:17:00,42.4,34.0,30.05,SSW,195,11.2,12.6,72,0.00,,BKN130,0.05,VWS V14.01,2013-01-19 21:17:00,
2013-01-19 16:22:00,42.2,33.8,30.05,South,188,0.0,5.6,72,0.00,,BKN130,0.05,VWS V14.01,2013-01-19 21:22:00,
2013-01-19 16:27:00,42.1,34.1,30.05,WSW,238,1.4,5.6,73,0.00,,BKN130,0.05,VWS V14.01,2013-01-19 21:27:00,
2013-01-19 16:33:00,42.1,34.4,30.05,SSW,210,5.6,7.0,74,0.00,,BKN130,0.05,VWS V14.01,2013-01-19 21:33:00,
2013-01-19 16:38:00,42.1,34.4,30.04,SSW,206,5.6,7.0,74,0.00,,BKN130,0.05,VWS V14.01,2013-01-19 21:38:00,
2013-01-19 16:43:00,41.8,34.1,30.05,WSW,249,9.8,9.8,74,0.00,,BKN130,0.05,VWS V14.01,2013-01-19 21:43:00,
2013-01-19 16:48:00,41.8,34.5,30.04,South,182,1.4,5.6,75,0.00,,BKN130,0.05,VWS V14.01,2013-01-19 21:48:00,
2013-01-19 16:53:00,41.8,34.5,30.04,SW,232,2.8,5.6,75,0.00,,BKN130,0.05,VWS V14.01,2013-01-19 21:53:00,
2013-01-19 16:58:00,41.7,34.4,30.04,SW,217,2.8,2.8,75,0.00,,BKN130,0.05,VWS V14.01,2013-01-19 21:58:00,
2013-01-19 17:04:00,41.7,34.7,30.04,SSW,209,7.0,9.8,76,0.00,,BKN120,0.05,VWS V14.01,2013-01-19 22:04:00,
2013-01-19 17:09:00,41.5,34.8,30.04,SSW,196,0.0,4.2,77,0.00,,BKN120,0.05,VWS V14.01,2013-01-19 22:09:00,
2013-01-19 17:14:00,41.4,34.7,30.04,SW,225,0.0,2.8,77,0.00,,BKN120,0.05,VWS V14.01,2013-01-19 22:14:00,
2013-01-19 17:19:00,41.5,34.8,30.04,SW,217,1.4,5.6,77,0.00,,BKN120,0.05,VWS V14.01,2013-01-19 22:19:00,
2013-01-19 17:24:00,41.5,34.8,30.04,SW,234,1.4,8.4,77,0.00,,BKN120,0.05,VWS V14.01,2013-01-19 22:24:00,
2013-01-19 17:29:00,41.5,34.8,30.04,SSW,192,0.0,12.6,77,0.00,,BKN120,0.05,VWS V14.01,2013-01-19 22:29:00,
2013-01-19 17:35:00,41.5,34.8,30.04,West,260,1.4,4.2,77,0.00,,BKN120,0.05,VWS V14.01,2013-01-19 22:35:00,
2013-01-19 17:40:00,41.4,34.7,30.04,SW,218,0.0,9.8,77,0.00,,BKN120,0.05,VWS V14.01,2013-01-19 22:40:00,
2013-01-19 17:45:00,41.2,34.9,30.04,WSW,246,4.2,11.2,78,0.00,,BKN120,0.05,VWS V14.01,2013-01-19 22:45:00,
2013-01-19 17:50:00,41.1,34.8,30.04,SSW,195,4.2,11.2,78,0.00,,BKN120,0.05,VWS V14.01,2013-01-19 22:50:00,
2013-01-19 17:55:00,41.1,35.1,30.04,SW,221,5.6,7.0,79,0.00,,BKN120,0.05,VWS V14.01,2013-01-19 22:55:00,
2013-01-19 18:00:00,41.0,35.0,30.04,SSW,201,1.4,8.4,79,0.00,,BKN120,0.05,VWS V14.01,2013-01-19 23:00:00,
2013-01-19 18:05:00,41.0,35.0,30.04,SSW,195,0.0,11.2,79,0.00,,BKN120,0.05,VWS V14.01,2013-01-19 23:05:00,
2013-01-19 18:10:00,40.8,35.1,30.04,SW,225,8.4,11.2,80,0.00,,BKN120,0.05,VWS V14.01,2013-01-19 23:10:00,
2013-01-19 18:16:00,40.8,35.1,30.04,SSW,198,1.4,2.8,80,0.00,,BKN120,0.05,VWS V14.01,2013-01-19 23:16:00,
2013-01-19 18:21:00,40.8,35.1,30.04,South,188,9.8,9.8,80,0.00,,BKN120,0.05,VWS V14.01,2013-01-19 23:21:00,
2013-01-19 18:26:00,40.8,35.4,30.04,SW,233,1.4,5.6,81,0.00,,BKN120,0.05,VWS V14.01,2013-01-19 23:26:00,
2013-01-19 18:31:00,40.8,35.4,30.04,SW,224,8.4,9.8,81,0.00,,BKN120,0.05,VWS V14.01,2013-01-19 23:31:00,
2013-01-19 18:36:00,41.0,35.3,30.04,SW,234,11.2,11.2,80,0.00,,BKN120,0.05,VWS V14.01,2013-01-19 23:36:00,
2013-01-19 18:41:00,41.1,35.4,30.04,South,182,7.0,7.0,80,0.00,,BKN120,0.05,VWS V14.01,2013-01-19 23:41:00,
2013-01-19 18:46:00,41.1,35.4,30.03,SSW,213,4.2,8.4,80,0.00,,BKN120,0.05,VWS V14.01,2013-01-19 23:46:00,
2013-01-19 18:51:00,41.1,35.4,30.03,WSW,242,11.2,11.2,80,0.00,,BKN120,0.05,VWS V14.01,2013-01-19 23:51:00,
2013-01-19 18:56:00,41.1,35.4,30.03,SSW,200,2.8,8.4,80,0.00,,BKN120,0.05,VWS V14.01,2013-01-19 23:56:00,
2013-01-19 19:01:00,41.1,35.1,30.03,SW,222,7.0,12.6,79,0.00,,BKN120,0.05,VWS V14.01,2013-01-20 00:01:00,
2013-01-19 19:06:00,41.1,35.1,30.03,SW,225,2.8,12.6,79,0.00,,BKN130,0.05,VWS V14.01,2013-01-20 00:06:00,
2013-01-19 19:11:00,41.0,35.3,30.03,SW,222,2.8,8.4,80,0.00,,BKN130,0.05,VWS V14.01,2013-01-20 00:11:00,
2013-01-19 19:16:00,40.8,35.1,30.03,SW,218,4.2,5.6,80,0.00,,BKN130,0.05,VWS V14.01,2013-01-20 00:16:00,
2013-01-19 19:21:00,40.8,35.1,30.03,SSW,195,7.0,9.8,80,0.00,,BKN130,0.05,VWS V14.01,2013-01-20 00:21:00,
2013-01-19 19:26:00,40.8,35.1,30.03,SW,217,0.0,4.2,80,0.00,,BKN130,0.05,VWS V14.01,2013-01-20 00:26:00,
2013-01-19 19:32:00,40.5,35.1,30.02,SW,234,0.0,5.6,81,0.00,,BKN130,0.05,VWS V14.01,2013-01-20 00:32:00,
2013-01-19 19:37:00,40.4,35.3,30.03,SW,234,7.0,11.2,82,0.00,,BKN130,0.05,VWS V14.01,2013-01-20 00:37:00,
2013-01-19 19:42:00,40.3,35.2,30.03,South,191,0.0,7.0,82,0.00,,BKN130,0.05,VWS V14.01,2013-01-20 00:42:00,
2013-01-19 19:47:00,40.3,35.6,30.02,SW,227,8.4,8.4,83,0.00,,BKN130,0.05,VWS V14.01,2013-01-20 00:47:00,
2013-01-19 19:52:00,40.3,35.6,30.02,SW,229,2.8,9.8,83,0.00,,BKN130,0.05,VWS V14.01,2013-01-20 00:52:00,
2013-01-19 19:57:00,40.3,35.6,30.02,WSW,248,5.6,11.2,83,0.00,,BKN130,0.05,VWS V14.01,2013-01-20 00:57:00,
2013-01-19 20:02:00,40.3,35.6,30.02,SSW,197,0.0,7.0,83,0.00,,BKN130,0.05,VWS V14.01,2013-01-20 01:02:00,
2013-01-19 20:07:00,40.1,35.4,30.02,SW,221,4.2,7.0,83,0.00,,BKN130,0.05,VWS V14.01,2013-01-20 01:07:00,
2013-01-19 20:13:00,40.0,35.6,30.01,SW,228,7.0,8.4,84,0.00,,BKN130,0.05,VWS V14.01,2013-01-20 01:13:00,
2013-01-19 20:18:00,40.0,35.6,30.01,SW,223,2.8,9.8,84,0.00,,BKN130,0.05,VWS V14.01,2013-01-20 01:18:00,
2013-01-19 20:24:00,39.8,35.7,30.01,SW,227,4.2,4.2,85,0.00,,BKN130,0.05,VWS V14.01,2013-01-20 01:24:00,
2013-01-19 20:29:00,39.7,35.9,30.01,WSW,249,1.4,9.8,86,0.00,,BKN130,0.05,VWS V14.01,2013-01-20 01:29:00,
2013-01-19 20:34:00,39.7,35.9,30.01,SW,218,12.6,12.6,86,0.00,,BKN130,0.05,VWS V14.01,2013-01-20 01:34:00,
2013-01-19 20:39:00,39.8,36.0,30.01,SW,229,2.8,7.0,86,0.00,,BKN130,0.05,VWS V14.01,2013-01-20 01:39:00,
2013-01-19 20:44:00,39.9,36.1,30.01,SSW,209,2.8,8.4,86,0.00,,BKN130,0.05,VWS V14.01,2013-01-20 01:44:00,
2013-01-19 20:49:00,39.9,36.1,30.00,SW,224,4.2,4.2,86,0.00,,BKN130,0.05,VWS V14.01,2013-01-20 01:49:00,
2013-01-19 20:54:00,39.8,36.0,30.01,WSW,256,8.4,8.4,86,0.00,,BKN130,0.05,VWS V14.01,2013-01-20 01:54:00,
2013-01-19 21:00:00,39.9,36.1,30.00,SW,221,0.0,7.0,86,0.00,,BKN130,0.05,VWS V14.01,2013-01-20 02:00:00,
2013-01-19 21:05:00,39.8,36.0,30.00,SW,229,1.4,5.6,86,0.00,,BKN130,0.05,VWS V14.01,2013-01-20 02:05:00,
2013-01-19 21:10:00,39.8,36.0,30.00,SW,230,1.4,7.0,86,0.00,,BKN130,0.05,VWS V14.01,2013-01-20 02:10:00,
2013-01-19 21:15:00,39.9,36.1,30.00,SSW,203,1.4,9.8,86,0.00,,BKN130,0.05,VWS V14.01,2013-01-20 02:15:00,
2013-01-19 21:20:00,39.9,36.1,30.00,WSW,242,1.4,9.8,86,0.00,,BKN130,0.05,VWS V14.01,2013-01-20 02:20:00,
2013-01-19 21:25:00,39.8,35.7,29.99,SSW,207,2.8,14.0,85,0.00,,BKN130,0.05,VWS V14.01,2013-01-20 02:25:00,
2013-01-19 21:30:00,40.0,35.6,29.99,SSW,209,2.8,5.6,84,0.00,,BKN130,0.05,VWS V14.01,2013-01-20 02:30:00,
2013-01-19 21:35:00,39.9,35.8,29.99,SW,228,8.4,12.6,85,0.00,,BKN130,0.05,VWS V14.01,2013-01-20 02:35:00,
2013-01-19 21:40:00,39.8,35.7,29.99,SSW,196,0.0,4.2,85,0.00,,BKN130,0.05,VWS V14.01,2013-01-20 02:40:00,
2013-01-19 21:46:00,39.8,35.7,29.99,SSW,211,7.0,7.0,85,0.00,,BKN130,0.05,VWS V14.01,2013-01-20 02:46:00,
2013-01-19 21:51:00,39.7,35.9,29.98,WSW,251,0.0,11.2,86,0.00,,BKN130,0.05,VWS V14.01,2013-01-20 02:51:00,
2013-01-19 21:56:00,39.7,36.2,29.99,SSW,201,8.4,8.4,87,0.00,,BKN130,0.05,VWS V14.01,2013-01-20 02:56:00,
2013-01-19 22:01:00,39.6,36.1,29.98,South,187,2.8,4.2,87,0.00,,BKN130,0.05,VWS V14.01,2013-01-20 03:01:00,
2013-01-19 22:07:00,39.6,36.1,29.98,South,188,2.8,5.6,87,0.00,,CLR,0.05,VWS V14.01,2013-01-20 03:07:00,
2013-01-19 22:12:00,39.7,36.2,29.98,SSW,206,9.8,9.8,87,0.00,,CLR,0.05,VWS V14.01,2013-01-20 03:12:00,
2013-01-19 22:17:00,39.9,36.3,29.98,SW,216,4.2,8.4,87,0.00,,CLR,0.05,VWS V14.01,2013-01-20 03:17:00,
2013-01-19 22:23:00,40.0,36.2,29.98,SSW,199,7.0,8.4,86,0.00,,CLR,0.05,VWS V14.01,2013-01-20 03:23:00,
2013-01-19 22:28:00,40.3,36.5,29.97,SW,221,5.6,9.8,86,0.00,,CLR,0.05,VWS V14.01,2013-01-20 03:28:00,
2013-01-19 22:33:00,40.4,36.3,29.97,SSW,213,5.6,11.2,85,0.00,,CLR,0.05,VWS V14.01,2013-01-20 03:33:00,
2013-01-19 22:38:00,40.4,36.0,29.97,SSW,211,1.4,5.6,84,0.00,,CLR,0.05,VWS V14.01,2013-01-20 03:38:00,
2013-01-19 22:43:00,40.5,36.0,29.96,SW,219,15.4,15.4,84,0.00,,CLR,0.05,VWS V14.01,2013-01-20 03:43:00,
2013-01-19 22:48:00,40.5,36.0,29.96,SSW,197,8.4,8.4,84,0.00,,CLR,0.05,VWS V14.01,2013-01-20 03:48:00,
2013-01-19 22:53:00,40.6,35.8,29.96,WSW,240,11.2,11.2,83,0.00,,CLR,0.05,VWS V14.01,2013-01-20 03:53:00,
2013-01-19 22:58:00,40.7,36.0,29.96,WSW,243,11.2,11.2,83,0.00,,CLR,0.05,VWS V14.01,2013-01-20 03:58:00,
2013-01-19 23:03:00,40.7,36.0,29.95,SSW,205,4.2,15.4,83,0.00,,CLR,0.05,VWS V14.01,2013-01-20 04:03:00,
2013-01-19 23:08:00,40.8,36.0,29.95,SSW,213,12.6,16.8,83,0.00,,CLR,0.05,VWS V14.01,2013-01-20 04:08:00,
2013-01-19 23:13:00,40.8,36.0,29.95,SW,223,18.2,18.2,83,0.00,,CLR,0.05,VWS V14.01,2013-01-20 04:13:00,
2013-01-19 23:18:00,40.5,35.8,29.95,SW,215,9.8,9.8,83,0.00,,CLR,0.05,VWS V14.01,2013-01-20 04:18:00,
2013-01-19 23:23:00,40.7,36.0,29.94,SW,220,4.2,7.0,83,0.00,,CLR,0.05,VWS V14.01,2013-01-20 04:23:00,
2013-01-19 23:28:00,40.7,35.6,29.95,WSW,242,12.6,14.0,82,0.00,,CLR,0.05,VWS V14.01,2013-01-20 04:28:00,
2013-01-19 23:33:00,40.8,35.4,29.94,SW,217,11.2,21.0,81,0.00,,CLR,0.05,VWS V14.01,2013-01-20 04:33:00,
2013-01-19 23:38:00,41.0,35.3,29.94,SSW,200,2.8,18.2,80,0.00,,CLR,0.05,VWS V14.01,2013-01-20 04:38:00,
2013-01-19 23:44:00,41.1,35.1,29.94,SSW,213,2.8,5.6,79,0.00,,CLR,0.05,VWS V14.01,2013-01-20 04:44:00,
2013-01-19 23:49:00,41.1,35.1,29.93,SSW,211,7.0,12.6,79,0.00,,CLR,0.05,VWS V14.01,2013-01-20 04:49:00,
2013-01-19 23:54:00,41.0,35.0,29.92,South,185,4.2,8.4,79,0.00,,CLR,0.05,VWS V14.01,2013-01-20 04:54:00,
2013-01-19 23:59:00,40.8,34.8,29.93,SW,219,11.2,15.4,79,0.00,,CLR,0.05,VWS V14.01,2013-01-20 04:59:00,